THORAD AGENA D DEB, 4164

Orbit data source: Space-Track

THORAD AGENA D DEB, 4164 is space debris in LEO originally from a launch on Tue, 30 Sep 1969 UTC launched from the Air Force Western Test Range (AFWTR). Debris objects in space refer to the collection of defunct objects orbiting the Earth. Examples of debris include non-operational satellites, rocket bodies, and fragments generated from explosions, collisions, or faulty payload assembly.

Loading next visibility...
Identifier
4164, 1969-082AG
Orbit
LEO
Country
Flag of USUS
Related business
Manufacturer
Unknown
Mission
Spacecraft
Bus & Motor
Unknown
Mass
Unknown
Launch date (UTC)
1969-09-30 (57 years ago)
Launch vehicle
Unknown
Launch site
Air Force Western Test Range (AFWTR)
Object type
Payload
Rocket body
Debris
Shape & HBR
Unknown shape, 0.1 m
Radar Cross Section
Medium (>0.1 m² and <1 m²)

Expand to show TLE details & history
Last TLE update: 1 day ago

TLE from 1 day ago
0 THORAD AGENA D DEB
1 04164U 69082AG  26173.28458274  .00001611  00000-0  58438-3 0  9999
2 04164  70.0761 128.8897 0033670 112.1095 248.3612 14.34762632911789
Epoch: 2026-06-22T06:49Z
TLE epoch observation values (Epoch: 2026-06-22T06:49:47.948Z)
Latitude
-0.00003°
Longitude
115.9672°
Altitude
787.169 km
Speed
7.456 km/s
True Right ascension
08h 35m 33s
True Declination
0° 00' 00"
Sunlit
Object was in daylight at epoch
Visualization orbit readout
Latitude
Unknown
Longitude
Unknown
Altitude
Unknown
Speed
Unknown
Apparent Right ascension
Unknown
Apparent Declination
Unknown
Sunlit
N/A
Visualization observer readout
Local Sidereal Time
19:55:40
Azimuth
Unknown
Elevation
Unknown
Doppler factor
Unknown
Orbital elements
Apogee altitude
797.935 km
Perigee altitude
749.774 km
Semi-major axis
7,151.991 km
Eccentricity
0.00337
Inclination
70.0761°
RAAN
128.8897°
Arg. of periapsis
112.1095°
True anomaly
248.00312°
Mean anomaly
248.3612°
Eccentric anomaly
248.1821°
Mean motion
3.58842 °/min
Orbital period
100.32 mins
BSTAR
0.00058438

Documentation

Showing up to 5 results
|